Вернуться в каталог

FENGYUN 1C DEB

АктивенSSO
NORAD 30703·DEBRIS·🇨🇳 China

Запущен May 10, 1999 с Taiyuan Satellite Launch Center

Loading…

Ближайшие Пролёты (ближайшие 24 часа)

TLE

СвежийSource: Space-Track

Эпоха: Sep 14, 2026, 11:10 UTC

1 30703U 99025ARM 26257.46565814  .00001239  00000-0  56172-3 0  9998
2 30703  99.1591 256.8874 0114543 227.4459 288.0815 14.20424234  4484

Отслеживайте FENGYUN 1C DEB в реальном времени с AllMySat

Download on the App Store